CW6242 Weather Reports


time (UTC)temp
F
wind
direction
speed
knots
gust
knots
rain 1hr
in
rain 24hr
in
rain mn
in
humidity
%
barometer
mb
20260508075014 71 90 0.9 3.5 0.00 0.00 0.00 68 1011.2
20260508074014 71 270 0.9 2.6 0.00 0.00 0.00 68 1010.9
20260508073014 71 0 0.9 2.6 0.00 0.00 0.00 67 1010.9
20260508072014 70 293 0.9 2.6 0.00 0.00 0.00 68 1010.9
20260508071014 69 338 0.9 3.5 0.00 0.00 0.00 70 1010.8
20260508070014 69 338 1.7 3.5 0.00 0.00 0.00 71 1010.7
20260508065014 69 45 0.9 3.5 0.00 0.00 0.00 71 1010.7
20260508064014 69 0.0 0.0 0.00 0.00 0.00 71 1010.8
20260508063014 68 0.0 0.0 0.00 0.00 0.00 72 1010.6
20260508062013 68 0.0 0.0 0.00 0.00 0.00 73 1010.4
20260508061014 68 0.0 0.0 0.00 0.00 0.00 74 1010.3
20260508060014 67 0.0 0.0 0.00 0.00 0.00 73 1010.1
20260508055013 67 0.0 0.0 0.00 0.00 0.00 73 1010.1
20260508054013 67 0.0 1.7 0.00 0.00 0.00 76 1010.0
20260508053033 65 0.0 0.0 0.00 0.00 0.00 74 1009.9
20260508052014 65 0.0 1.7 0.00 0.00 0.00 76 1009.7
20260508051013 64 0.0 2.6 0.00 0.00 0.00 77 1009.8
20260508050013 63 0.0 2.6 0.00 0.00 0.00 76 1009.7
20260508045015 63 135 0.9 1.7 0.00 0.00 0.00 76 1009.6
20260508044015 63 0.0 1.7 0.00 0.00 0.00 76 1009.5
20260508043035 63 135 1.7 3.5 0.00 0.00 0.00 76 1009.4
20260508042015 63 135 0.9 4.3 0.00 0.00 0.00 76 1009.3
20260508041015 63 113 1.7 3.5 0.00 0.00 0.00 76 1009.3
20260508040015 63 113 1.7 3.5 0.00 0.00 0.00 75 1009.3
20260508035015 63 113 2.6 7.0 0.00 0.00 0.00 76 1009.0
20260508034015 63 68 2.6 8.7 0.00 0.00 0.00 76 1008.9
20260508033015 63 0 2.6 7.0 0.00 0.00 0.00 75 1008.8
20260508032055 63 0 1.7 3.5 0.00 0.00 0.00 73 1008.8
20260508031015 64 23 1.7 4.3 0.00 0.00 0.00 72 1008.7
20260508030015 65 315 1.7 3.5 0.00 0.00 0.00 68 1008.6
20260508025015 65 225 0.9 2.6 0.00 0.00 0.00 66 1008.6
20260508024016 65 0.0 1.7 0.00 0.00 0.00 66 1008.5
20260508023015 65 248 1.7 2.6 0.00 0.00 0.00 66 1008.2
20260508022035 65 0.0 1.7 0.00 0.00 0.00 67 1008.3
20260508021015 65 225 0.9 3.5 0.00 0.00 0.00 67 1008.3
20260508020015 65 248 1.7 4.3 0.00 0.00 0.00 68 1008.3
20260508015015 65 0.0 0.0 0.00 0.00 0.00 68 1008.3
20260508014035 65 0.0 1.7 0.00 0.00 0.00 67 1008.4
20260508013015 65 0.0 1.7 0.00 0.00 0.00 67 1008.3
20260508012015 65 0.0 1.7 0.00 0.00 0.00 67 1008.2
20260508011017 65 203 0.9 1.7 0.00 0.00 0.00 67 1008.1
20260508010017 65 180 1.7 4.3 0.00 0.00 0.00 67 1008.0
20260508005017 65 203 3.5 7.8 0.00 0.00 0.00 68 1007.9
20260508004036 65 203 4.3 8.7 0.00 0.00 0.00 67 1007.9
20260508003016 65 225 6.1 10.4 0.00 0.00 0.00 67 1008.2
20260508002036 65 225 5.2 9.6 0.00 0.00 0.00 67 1008.4
20260508001016 65 225 4.3 10.4 0.00 0.00 0.00 67 1008.6
20260508000036 65 225 5.2 11.3 0.00 0.00 0.00 66 1008.6
20260507235016 65 225 4.3 9.6 0.00 0.00 0.00 66 1008.6
20260507234016 65 225 4.3 11.3 0.00 0.00 0.00 66 1008.9
20260507233016 65 248 6.1 14.8 0.00 0.00 0.00 66 1009.1
20260507232006 65 248 4.3 7.8 0.00 0.00 0.00 68 1009.1
20260507231006 64 180 2.6 6.1 0.00 0.00 0.00 70 1009.3
20260507230008 64 225 4.3 13.0 0.00 0.00 0.00 70 1009.5
20260507225008 64 248 7.0 14.8 0.00 0.00 0.00 71 1009.9
20260507224011 64 248 5.2 11.3 0.00 0.00 0.00 71 1010.0
20260507223007 64 225 6.1 13.9 0.00 0.00 0.00 68 1010.3
20260507222028 65 225 4.3 8.7 0.00 0.00 0.00 66 1010.2
20260507221008 66 225 3.5 7.8 0.00 0.00 0.00 63 1010.3
20260507220007 66 225 3.5 6.1 0.00 0.00 0.00 63 1009.6
20260507215007 66 203 2.6 4.3 0.00 0.00 0.00 64 1009.4
20260507214007 66 180 2.6 5.2 0.00 0.00 0.00 64 1009.2
20260507213007 66 203 3.5 7.0 0.00 0.00 0.00 64 1009.1
20260507212007 66 203 2.6 4.3 0.00 0.00 0.00 64 1009.1
20260507211007 66 225 3.5 5.2 0.00 0.00 0.00 64 1009.1
20260507210007 66 225 2.6 4.3 0.00 0.00 0.00 64 1009.1
20260507205009 66 248 3.5 7.8 0.00 0.00 0.00 64 1009.2
20260507204029 66 225 2.6 6.1 0.00 0.00 0.00 64 1009.3
20260507203007 66 203 3.5 6.1 0.00 0.00 0.00 64 1009.6
20260507202008 65 158 2.6 5.2 0.00 0.00 0.00 65 1009.4
20260507201008 65 135 1.7 3.5 0.00 0.00 0.00 64 1009.1
20260507200008 65 135 2.6 6.1 0.00 0.00 0.00 66 1009.0
20260507195008 65 135 0.9 4.3 0.00 0.00 0.00 66 1009.0
20260507194008 66 0.0 0.0 0.00 0.00 0.00 66 1008.9
20260507193047 66 0.0 0.0 0.00 0.00 0.00 65 1008.7
20260507192007 66 0.0 0.0 0.00 0.00 0.00 64 1008.5
20260507191007 66 0.0 0.0 0.00 0.00 0.00 64 1008.5
20260507190030 66 0.0 0.0 0.00 0.00 0.00 64 1008.4
20260507185009 66 0.0 0.0 0.00 0.00 0.00 63 1008.3
20260507184009 65 0.0 0.0 0.00 0.00 0.00 64 1008.0
20260507183009 65 135 2.6 7.0 0.00 0.00 0.00 66 1008.1
20260507182009 66 135 0.9 7.8 0.00 0.00 0.00 65 1008.2
20260507181009 67 0.0 2.6 0.00 0.00 0.00 62 1008.0
20260507180009 67 0.0 6.1 0.00 0.00 0.00 55 1007.9
20260507175009 68 0.0 0.9 0.00 0.00 0.00 49 1007.8
20260507174009 68 0.0 0.9 0.00 0.00 0.00 47 1007.7
20260507173009 68 0.0 0.0 0.00 0.00 0.00 48 1007.7
20260507172009 68 0.0 0.0 0.00 0.00 0.00 46 1007.8
20260507171009 69 0.0 0.0 0.00 0.00 0.00 46 1007.8
20260507170049 69 0.0 0.0 0.00 0.00 0.00 46 1007.9
20260507165009 69 0.0 0.0 0.00 0.00 0.00 46 1007.9
20260507164009 70 0.0 0.9 0.00 0.00 0.00 51 1008.1
20260507163009 70 0.0 0.0 0.00 0.00 0.00 51 1008.0
20260507162009 70 0.0 0.0 0.00 0.00 0.00 49 1008.0
20260507161009 71 0.0 0.0 0.00 0.00 0.00 51 1007.8
20260507160009 70 0.0 0.0 0.00 0.00 0.00 54 1007.7
20260507155009 71 0.0 0.0 0.00 0.00 0.00 56 1007.9
20260507154010 71 0.0 1.7 0.00 0.00 0.00 56 1008.1
20260507153009 71 0.0 1.7 0.00 0.00 0.00 56 1008.0
20260507152011 71 0.0 0.9 0.00 0.00 0.00 58 1007.8
20260507151032 72 0.0 0.0 0.00 0.00 0.00 55 1007.8
20260507150031 72 0.0 0.9 0.00 0.00 0.00 48 1007.9
20260507145011 73 0.0 0.9 0.00 0.00 0.00 45 1008.1
20260507144051 74 0.0 3.5 0.00 0.00 0.00 47 1007.8
20260507143011 73 270 0.9 6.1 0.00 0.00 0.00 47 1007.5
20260507142011 73 0.0 0.0 0.00 0.00 0.00 49 1007.7
20260507141012 73 0.0 2.6 0.00 0.00 0.00 51 1007.7
20260507140011 73 0.0 4.3 0.00 0.00 0.00 54 1007.7
20260507135011 72 0.0 0.0 0.00 0.00 0.00 57 1008.1
20260507134031 72 0.0 0.0 0.00 0.00 0.00 58 1008.0
20260507133051 72 0.0 0.0 0.00 0.00 0.00 57 1008.1
20260507132011 72 0.0 0.0 0.00 0.00 0.00 58 1008.5
20260507131031 71 0.0 0.0 0.00 0.00 0.00 57 1008.2
20260507130011 71 0.0 0.0 0.00 0.00 0.00 56 1008.3
20260507125011 73 0.0 0.0 0.00 0.00 0.00 54 1008.5
20260507124031 73 0.0 0.0 0.00 0.00 0.00 58 1008.7
20260507123010 72 158 0.9 8.7 0.00 0.00 0.00 56 1008.7
20260507122010 73 135 1.7 7.8 0.00 0.00 0.00 52 1008.8
20260507121011 73 158 0.9 10.4 0.00 0.00 0.00 50 1008.7
20260507120031 73 0 2.6 10.4 0.00 0.00 0.00 47 1008.4
20260507115011 73 0 2.6 10.4 0.00 0.00 0.00 46 1008.4
20260507114012 72 180 3.5 13.9 0.00 0.00 0.00 49 1008.6
20260507113013 72 158 5.2 14.8 0.00 0.00 0.00 46 1008.6
20260507112012 74 0 4.3 21.7 0.00 0.00 0.00 39 1008.5
20260507111013 73 0 4.3 13.9 0.00 0.00 0.00 39 1008.9
20260507110012 73 135 7.8 21.7 0.00 0.00 0.00 39 1008.9
20260507105012 73 0 9.6 21.7 0.00 0.00 0.00 37 1009.2
20260507104013 73 0 9.6 21.7 0.00 0.00 0.00 36 1009.1
20260507103032 73 0 10.4 20.0 0.00 0.00 0.00 35 1009.1
20260507102032 73 0 10.4 23.5 0.00 0.00 0.00 33 1008.9
20260507101013 73 0 10.4 23.5 0.00 0.00 0.00 33 1008.9
20260507100012 72 0 13.0 27.8 0.00 0.00 0.00 32 1008.7
20260507095012 73 0 10.4 22.6 0.00 0.00 0.00 32 1008.9
20260507094013 72 0 9.6 22.6 0.00 0.00 0.00 31 1009.0
20260507093012 72 0 7.8 26.9 0.00 0.00 0.00 35 1009.2
20260507092012 71 158 2.6 15.6 0.00 0.00 0.00 53 1009.8
20260507091012 71 45 2.6 8.7 0.00 0.00 0.00 57 1009.6
20260507090012 71 0.0 4.3 0.00 0.00 0.00 54 1009.7
20260507085032 69 315 2.6 7.8 0.00 0.00 0.00 65 1009.9
20260507084012 69 0.0 3.5 0.00 0.00 0.00 71 1009.8
20260507083012 68 270 0.9 5.2 0.00 0.00 0.00 72 1009.8
20260507082032 68 270 1.7 8.7 0.00 0.00 0.00 69 1009.9
20260507081012 69 0.0 0.0 0.00 0.00 0.00 67 1009.9
20260507080014 70 180 1.7 7.0 0.00 0.00 0.00 65 1009.9